Simultaneous Nadir Overpasses (SNOs) Predictions

Prediction of SNOs between GOES-16 and NOAA-20 Satellite Orbit:

Table of predicted SNOs for the next 14.0 days since TLE Epoch: 4/30/2022
Index Date Time (GOES-16) GOES-16 Lat,Lon NOAA-20 Lat,Lon Distance(km) Time Diff (sec)
1 04/30/2022 06:11:34 -0.04, -75.19 -0.73, -71.94 369.02 80
2 05/01/2022 18:36:12 0.03, -75.19 -0.40, -77.26 235.27 80
3 05/02/2022 18:14:47 0.04, -75.19 0.61, -72.73 281.00 80
4 05/04/2022 06:39:14 -0.03, -75.19 0.60, -78.00 319.93 80
5 05/05/2022 06:17:50 -0.03, -75.19 -0.42, -73.47 196.45 80
6 05/06/2022 18:42:26 0.02, -75.20 -0.77, -78.78 407.24 80
7 05/07/2022 18:21:02 0.02, -75.21 0.25, -74.25 109.62 80
8 05/09/2022 06:45:29 -0.02, -75.21 0.95, -79.51 490.11 80
9 05/10/2022 06:24:05 -0.02, -75.22 -0.07, -74.99 27.02 80
10 05/12/2022 18:29:56 0.01, -75.25 -0.08, -75.77 58.11 80
11 05/13/2022 18:08:32 0.02, -75.27 0.94, -71.24 459.61 80
